Temp
0 0 0 -0 -0 -0 -0 -0 -0 -0 -1 -1 -1 -1 -1 -1 -1 -0 -1 -0 -0 -0 -0 -0 -1 -1 -1 -1 -1 -1 -1 -1 -1 -0 -0 -1 -1 -1 -1 -0 -0 -0 -0 -0 -1 -1 -1 -0 -0 0 0 0 0 0 1 1 0 0 -0 -1 -1 -1
-1 -1 -1 -1 -1 -2 -2 -2 -2 -2 -2 -1 -1 -1 -1 -1 -1 -1 -1 -1 -1 -1 -1 -1 -1 -1 -2 -2 -2 -2 -1 -1 -1 -1 -1 -1 -1 -1 -1 -1 -2 -1 -1 -1 -1 -1 -2 -1 -1 -1 -0 -0 -0 -0 -0 0 0 0 0 -0 -1 -1
-2 -2 -2 -2 -2 -2 -2 -2 -2 -2 -2 -2 -2 -2 -2 -1 -1 -2 -2 -2 -2 -2 -2 -2 -2 -2 -2 -2 -2 -2 -2 -2 -2 -2 -2 -2 -2 -2 -2 -2 -2 -2 -2 -2 -2 -2 -2 -2 -2 -2 -1 -1 -1 -1 -1 -0 -0 -0 -0 -0 -1 -1
-2 -2 -3 -3 -3 -3 -3 -2 -2 -2 -2 -2 -2 -2 -2 -2 -2 -2 -2 -3 -3 -3 -3 -3 -3 -3 -3 -3 -3 -3 -3 -3 -3 -3 -3 -2 -2 -2 -2 -2 -3 -3 -3 -3 -3 -2 -2 -2 -2 -2 -2 -2 -2 -2 -1 -1 -1 -1 -1 -1 -1 -1
-3 -3 -3 -3 -3 -3 -3 -3 -3 -3 -3 -3 -3 -3 -3 -4 -4 -4 -4 -4 -4 -4 -4 -4 -4 -4 -4 -3 -3 -3 -3 -3 -3 -3 -3 -3 -3 -3 -3 -3 -3 -3 -3 -3 -3 -3 -3 -3 -3 -3 -3 -3 -3 -3 -2 -2 -2 -2 -2 -1 -1 -2
-4 -4 -4 -4 -4 -4 -4 -4 -4 -4 -4 -4 -5 -5 -6 -6 -6 -6 -6 -6 -6 -5 -5 -5 -5 -5 -5 -5 -4 -4 -4 -4 -4 -4 -4 -4 -4 -4 -4 -4 -4 -4 -4 -4 -4 -4 -4 -4 -3 -3 -3 -3 -3 -3 -3 -3 -3 -3 -3 -2 -2 -2
-5 -5 -5 -5 -5 -5 -6 -6 -6 -6 -6 -6 -7 -7 -8 -8 -8 -8 -8 -7 -7 -7 -7 -6 -6 -6 -6 -6 -6 -6 -6 -6 -6 -6 -6 -6 -6 -6 -5 -5 -5 -5 -4 -4 -4 -4 -4 -4 -4 -4 -4 -3 -3 -3 -3 -3 -3 -3 -3 -3 -3 -3
-6 -6 -6 -7 -7 -7 -7 -8 -8 -8 -8 -8 -9 -9 -9 -9 -9 -9 -9 -9 -8 -8 -8 -8 -7 -7 -7 -7 -7 -7 -7 -7 -7 -7 -7 -7 -7 -6 -6 -6 -6 -5 -5 -5 -4 -4 -4 -4 -5 -5 -4 -4 -4 -4 -4 -4 -4 -4 -3 -3 -3 -3
-7 -7 -7 -8 -8 -9 -9 -9 -9 -9 -9 -9 -9 -9 -9 -9 -9 -9 -9 -9 -9 -9 -9 -9 -9 -8 -8 -8 -8 -8 -8 -8 -8 -8 -7 -7 -7 -7 -7 -7 -7 -6 -6 -6 -6 -5 -5 -4 -5 -5 -5 -5 -5 -5 -5 -5 -4 -4 -4 -4 -4 -4
-7 -8 -8 -9 -9 -10 -10 -10 -10 -10 -10 -10 -10 -10 -10 -10 -10 -10 -10 -10 -10 -10 -10 -10 -10 -9 -9 -9 -8 -8 -8 -8 -8 -8 -8 -8 -8 -8 -7 -7 -7 -7 -7 -7 -7 -6 -6 -6 -5 -5 -6 -6 -6 -6 -6 -5 -5 -5 -4 -4 -4 -4
-8 -8 -9 -9 -10 -10 -10 -10 -10 -11 -11 -11 -11 -11 -11 -11 -11 -11 -11 -10 -11 -11 -11 -10 -10 -10 -10 -10 -9 -9 -9 -9 -8 -8 -8 -8 -8 -8 -8 -8 -8 -7 -7 -7 -7 -7 -7 -7 -7 -6 -6 -6 -6 -6 -6 -6 -6 -6 -6 -5 -5 -4
-8 -9 -9 -10 -10 -10 -11 -11 -11 -11 -11 -11 -11 -11 -11 -11 -11 -11 -11 -11 -11 -11 -11 -11 -11 -11 -11 -11 -11 -11 -10 -10 -9 -9 -9 -9 -9 -9 -8 -8 -8 -8 -8 -8 -8 -8 -8 -8 -8 -8 -8 -8 -7 -7 -7 -7 -6 -6 -6 -6 -6 -5
-9 -10 -10 -10 -11 -11 -11 -11 -11 -11 -11 -11 -11 -11 -11 -11 -11 -11 -11 -11 -12 -12 -12 -12 -12 -12 -12 -12 -12 -12 -12 -12 -11 -11 -11 -11 -10 -10 -10 -10 -9 -9 -9 -9 -9 -9 -8 -8 -8 -8 -9 -9 -9 -9 -8 -8 -7 -7 -7 -6 -6 -6
-10 -10 -11 -11 -11 -11 -11 -11 -11 -11 -11 -11 -11 -11 -11 -11 -11 -11 -12 -12 -12 -12 -12 -12 -12 -12 -12 -12 -12 -12 -12 -12 -12 -12 -12 -12 -12 -12 -12 -11 -11 -11 -11 -10 -10 -10 -9 -9 -9 -9 -9 -9 -10 -10 -10 -9 -8 -8 -7 -7 -7 -7
-11 -11 -11 -12 -12 -12 -12 -12 -12 -12 -12 -12 -12 -12 -12 -12 -12 -12 -12 -12 -12 -12 -12 -13 -13 -13 -13 -13 -13 -13 -13 -13 -13 -13 -13 -13 -13 -13 -13 -12 -12 -12 -12 -12 -12 -11 -11 -10 -10 -10 -10 -10 -10 -10 -11 -11 -10 -9 -9 -8 -8 -7
-11 -12 -12 -12 -12 -12 -12 -12 -12 -12 -12 -12 -12 -12 -12 -13 -13 -13 -13 -13 -13 -13 -13 -13 -13 -13 -13 -13 -13 -13 -13 -13 -13 -13 -13 -13 -13 -13 -13 -13 -13 -13 -13 -13 -13 -12 -12 -12 -11 -11 -11 -11 -10 -11 -11 -12 -12 -11 -10 -9 -9 -8
-12 -12 -12 -12 -12 -12 -12 -12 -12 -12 -13 -13 -13 -13 -13 -13 -13 -13 -13 -13 -13 -13 -13 -13 -13 -13 -13 -13 -13 -13 -13 -13 -13 -13 -13 -13 -13 -13 -13 -13 -13 -13 -13 -13 -13 -13 -13 -12 -12 -12 -12 -12 -12 -12 -12 -12 -12 -12 -12 -11 -10 -10
-12 -12 -13 -13 -13 -13 -13 -13 -13 -13 -13 -13 -13 -13 -13 -13 -13 -13 -13 -13 -13 -13 -13 -13 -13 -13 -13 -13 -13 -13 -13 -13 -13 -13 -13 -13 -13 -13 -13 -13 -13 -13 -13 -13 -13 -13 -13 -13 -13 -13 -13 -13 -13 -13 -13 -13 -13 -12 -12 -12 -12 -11
-12 -13 -13 -13 -13 -13 -13 -13 -13 -13 -13 -13 -13 -13 -13 -13 -13 -13 -14 -14 -14 -14 -14 -14 -14 -13 -14 -14 -14 -14 -14 -14 -14 -14 -14 -14 -14 -14 -13 -13 -13 -13 -13 -13 -13 -13 -13 -13 -13 -13 -13 -13 -14 -14 -13 -13 -13 -13 -12 -12 -12 -12
-13 -13 -13 -13 -13 -13 -13 -13 -13 -13 -13 -13 -13 -13 -13 -14 -14 -14 -14 -14 -14 -14 -14 -14 -14 -14 -14 -14 -14 -14 -14 -14 -14 -14 -14 -14 -14 -14 -14 -14 -14 -14 -14 -14 -14 -14 -14 -13 -13 -13 -14 -14 -14 -14 -14 -14 -14 -14 -13 -13 -12 -12
-13 -13 -13 -13 -13 -13 -13 -13 -13 -13 -13 -13 -14 -14 -14 -14 -14 -14 -14 -14 -14 -14 -14 -14 -14 -14 -14 -14 -14 -14 -14 -14 -14 -15 -15 -15 -15 -15 -15 -15 -15 -14 -14 -14 -14 -14 -14 -14 -13 -13 -14 -14 -15 -15 -15 -15 -15 -14 -14 -13 -13 -12
-13 -13 -13 -13 -13 -13 -14 -14 -14 -14 -14 -14 -14 -14 -14 -14 -14 -14 -14 -14 -14 -14 -14 -14 -14 -14 -14 -14 -15 -15 -15 -15 -15 -15 -15 -15 -15 -15 -15 -15 -15 -15 -15 -14 -14 -14 -14 -14 -13 -13 -13 -13 -14 -14 -15 -16 -16 -15 -15 -14 -14 -13
-14 -14 -14 -14 -14 -14 -14 -14 -14 -14 -14 -14 -14 -14 -14 -14 -14 -14 -14 -14 -14 -14 -14 -14 -14 -14 -15 -15 -15 -15 -15 -15 -16 -16 -16 -16 -16 -16 -16 -15 -15 -15 -15 -14 -14 -14 -14 -14 -13 -13 -13 -13 -13 -13 -14 -15 -16 -16 -15 -15 -15 -14
-14 -14 -14 -14 -14 -14 -14 -14 -14 -14 -15 -15 -15 -15 -14 -14 -14 -14 -14 -14 -14 -14 -14 -14 -15 -15 -15 -15 -15 -16 -16 -16 -16 -16 -16 -16 -16 -16 -16 -16 -16 -15 -15 -14 -14 -14 -14 -14 -14 -14 -13 -13 -13 -13 -13 -14 -15 -15 -16 -16 -15 -15
-14 -14 -14 -14 -14 -14 -15 -15 -15 -15 -15 -15 -15 -15 -14 -14 -14 -14 -14 -14 -14 -14 -14 -15 -15 -15 -16 -16 -16 -16 -16 -16 -16 -16 -16 -16 -16 -16 -16 -16 -16 -15 -15 -14 -14 -14 -14 -14 -14 -14 -14 -14 -14 -14 -14 -14 -14 -15 -16 -16 -16 -15
-14 -14 -15 -15 -15 -15 -15 -15 -15 -15 -15 -15 -15 -15 -14 -14 -14 -14 -14 -14 -14 -14 -15 -15 -15 -16 -16 -16 -16 -16 -16 -17 -17 -17 -17 -17 -17 -16 -16 -16 -16 -16 -15 -14 -14 -14 -14 -14 -14 -14 -14 -14 -14 -15 -15 -14 -14 -14 -15 -16 -16 -16
-15 -15 -15 -15 -15 -15 -15 -15 -15 -15 -15 -15 -15 -15 -15 -15 -15 -14 -14 -14 -15 -15 -15 -16 -16 -16 -16 -16 -17 -17 -17 -17 -17 -17 -17 -17 -17 -17 -16 -16 -16 -16 -15 -15 -14 -14 -14 -14 -14 -14 -14 -15 -15 -15 -15 -15 -15 -15 -15 -16 -16 -16
-15 -15 -15 -15 -15 -16 -15 -15 -15 -15 -15 -15 -15 -15 -15 -15 -15 -14 -15 -15 -15 -16 -16 -16 -16 -16 -16 -17 -17 -17 -17 -17 -17 -17 -17 -17 -17 -17 -17 -17 -16 -16 -16 -15 -15 -15 -14 -14 -15 -14 -15 -16 -16 -16 -16 -16 -16 -15 -15 -15 -16 -16
-15 -15 -16 -16 -16 -16 -16 -16 -16 -15 -15 -15 -15 -15 -15 -15 -15 -15 -15 -15 -16 -16 -16 -16 -16 -16 -16 -16 -17 -17 -17 -18 -18 -18 -17 -17 -18 -17 -17 -17 -17 -17 -16 -16 -15 -15 -15 -15 -15 -15 -16 -17 -17 -17 -17 -17 -17 -17 -16 -16 -16 -16
-15 -16 -16 -16 -16 -16 -16 -16 -15 -15 -15 -15 -15 -15 -15 -15 -15 -15 -16 -16 -16 -16 -16 -16 -16 -16 -16 -17 -17 -18 -18 -18 -18 -18 -18 -18 -18 -18 -18 -17 -17 -17 -16 -16 -15 -15 -14 -14 -15 -16 -17 -18 -18 -18 -18 -18 -18 -18 -18 -17 -17 -17
-16 -16 -16 -16 -16 -16 -16 -16 -15 -15 -15 -15 -15 -15 -15 -15 -15 -16 -16 -16 -16 -16 -16 -16 -16 -16 -17 -17 -17 -18 -18 -18 -18 -17 -17 -18 -19 -19 -18 -18 -17 -17 -17 -16 -15 -15 -15 -14 -14 -16 -17 -17 -18 -18 -19 -19 -19 -19 -19 -18 -18 -18
-16 -16 -16 -16 -16 -16 -16 -16 -16 -16 -16 -16 -16 -15 -16 -16 -16 -16 -16 -16 -16 -16 -16 -16 -16 -17 -17 -17 -17 -17 -17 -17 -18 -18 -18 -18 -19 -19 -19 -19 -19 -19 -19 -18 -17 -17 -17 -16 -16 -17 -18 -19 -19 -19 -20 -20 -21 -21 -21 -20 -20 -20
-16 -16 -16 -16 -16 -16 -16 -16 -16 -16 -16 -16 -16 -16 -16 -16 -16 -16 -16 -16 -16 -16 -16 -16 -16 -17 -17 -17 -17 -17 -17 -17 -18 -19 -19 -19 -19 -19 -20 -20 -20 -20 -20 -19 -18 -18 -18 -17 -17 -18 -19 -19 -19 -20 -20 -21 -21 -21 -21 -21 -22 -22
-16 -17 -16 -16 -16 -16 -16 -16 -16 -16 -16 -16 -16 -16 -17 -17 -17 -16 -17 -17 -16 -16 -16 -16 -16 -17 -17 -17 -17 -17 -17 -17 -17 -17 -18 -19 -19 -20 -20 -20 -20 -20 -20 -20 -20 -19 -18 -18 -18 -18 -19 -19 -19 -20 -20 -20 -21 -21 -22 -22 -22 -21
-17 -17 -17 -16 -16 -16 -16 -16 -16 -16 -16 -16 -16 -17 -17 -17 -17 -17 -17 -17 -16 -16 -16 -16 -16 -17 -17 -17 -17 -17 -18 -18 -17 -17 -17 -17 -19 -20 -20 -21 -21 -20 -20 -20 -20 -20 -19 -18 -18 -19 -19 -20 -20 -20 -20 -21 -21 -22 -22 -22 -22 -21
-17 -17 -17 -17 -16 -16 -16 -16 -16 -16 -16 -16 -17 -17 -17 -17 -17 -17 -17 -17 -16 -16 -16 -16 -16 -16 -17 -18 -17 -17 -17 -18 -18 -18 -17 -17 -17 -18 -19 -20 -21 -21 -20 -20 -19 -19 -19 -19 -19 -19 -20 -20 -21 -21 -22 -22 -22 -22 -22 -22 -22 -20
-17 -17 -17 -16 -16 -16 -16 -16 -16 -16 -17 -17 -17 -17 -17 -17 -17 -17 -17 -17 -17 -16 -16 -16 -16 -16 -17 -18 -18 -18 -18 -18 -18 -18 -18 -18 -18 -18 -18 -18 -19 -20 -20 -20 -19 -19 -18 -19 -19 -20 -21 -21 -22 -22 -23 -24 -23 -23 -22 -22 -21 -21
-17 -17 -17 -17 -16 -16 -17 -17 -17 -17 -17 -17 -17 -17 -17 -17 -17 -17 -17 -17 -17 -17 -17 -17 -16 -16 -17 -18 -18 -18 -18 -18 -18 -18 -18 -18 -18 -18 -18 -18 -19 -19 -20 -20 -20 -19 -19 -19 -20 -21 -22 -22 -23 -23 -24 -24 -24 -24 -23 -22 -22 -21
Height
3066 3065 3064 3063 3062 3060 3060 3060 3060 3060 3059 3058 3057 3056 3055 3054 3053 3052 3051 3049 3048 3047 3045 3044 3042 3041 3040 3039 3038 3036 3035 3034 3034 3033 3032 3032 3032 3031 3031 3030 3029 3028 3027 3026 3025 3024 3023 3022 3021 3020 3020 3020 3019 3019 3018 3017 3016 3016 3016 3016 3016 3017
3062 3061 3060 3059 3058 3057 3056 3056 3056 3056 3056 3055 3054 3053 3052 3051 3050 3048 3047 3045 3044 3042 3041 3040 3038 3036 3035 3034 3033 3032 3030 3029 3028 3027 3026 3025 3024 3024 3024 3024 3024 3024 3023 3022 3021 3020 3019 3017 3016 3014 3014 3014 3013 3013 3012 3012 3011 3010 3010 3010 3010 3011
3058 3057 3056 3055 3054 3054 3053 3052 3051 3051 3050 3050 3050 3049 3048 3047 3045 3044 3042 3041 3040 3038 3037 3035 3034 3032 3030 3029 3028 3026 3025 3024 3022 3021 3020 3019 3017 3016 3016 3015 3015 3015 3016 3016 3016 3016 3015 3014 3012 3010 3009 3008 3008 3008 3007 3006 3006 3005 3005 3005 3005 3005
3054 3053 3052 3051 3051 3050 3049 3048 3047 3045 3044 3043 3043 3042 3042 3041 3040 3039 3037 3036 3034 3033 3032 3031 3029 3028 3026 3025 3023 3021 3020 3018 3017 3016 3015 3013 3012 3010 3009 3008 3007 3007 3006 3006 3007 3007 3008 3007 3006 3005 3004 3003 3003 3003 3002 3002 3001 3001 3000 2999 2999 2999
3050 3049 3048 3047 3046 3045 3045 3043 3042 3040 3038 3036 3036 3035 3035 3034 3033 3032 3031 3030 3029 3028 3027 3025 3024 3023 3022 3020 3018 3017 3015 3013 3012 3010 3009 3008 3007 3006 3005 3004 3003 3002 3000 2999 2998 2998 2998 2998 2998 2998 2997 2997 2997 2997 2997 2997 2996 2996 2995 2995 2994 2993
3045 3044 3043 3042 3040 3039 3038 3037 3036 3034 3032 3031 3030 3029 3028 3027 3026 3026 3025 3024 3023 3022 3021 3020 3019 3017 3016 3014 3012 3011 3009 3008 3006 3005 3004 3002 3001 3000 3000 2999 2998 2997 2995 2994 2993 2991 2990 2989 2989 2989 2989 2989 2990 2990 2991 2991 2990 2990 2990 2989 2989 2988
3038 3037 3036 3035 3034 3033 3031 3030 3029 3028 3027 3026 3024 3023 3022 3021 3020 3020 3019 3019 3018 3017 3016 3015 3013 3012 3010 3009 3007 3005 3004 3002 3001 3000 2999 2997 2996 2995 2994 2993 2991 2990 2989 2987 2986 2985 2984 2983 2982 2982 2981 2981 2982 2982 2983 2983 2983 2983 2983 2983 2982 2982
3032 3031 3029 3028 3027 3026 3025 3024 3023 3023 3022 3021 3020 3019 3018 3017 3016 3015 3014 3013 3012 3012 3011 3010 3009 3007 3005 3003 3001 3000 2999 2997 2996 2995 2994 2992 2991 2990 2989 2987 2986 2984 2982 2981 2979 2977 2976 2976 2975 2975 2974 2974 2973 2974 2974 2974 2975 2975 2976 2976 2976 2975
3028 3026 3025 3023 3022 3021 3020 3019 3019 3018 3017 3016 3015 3014 3013 3012 3011 3010 3008 3008 3007 3006 3005 3004 3003 3002 3000 2998 2996 2994 2992 2990 2989 2988 2986 2985 2984 2983 2982 2980 2979 2978 2976 2975 2973 2971 2969 2968 2968 2967 2967 2966 2966 2965 2965 2966 2966 2967 2967 2968 2968 2968
3024 3022 3021 3020 3018 3017 3016 3016 3015 3014 3013 3012 3011 3009 3008 3006 3005 3004 3003 3001 3000 2999 2998 2997 2996 2995 2994 2992 2991 2989 2986 2984 2982 2980 2978 2977 2975 2974 2972 2971 2970 2969 2968 2967 2966 2964 2963 2961 2960 2959 2958 2958 2958 2958 2957 2957 2957 2958 2959 2959 2960 2960
3020 3019 3017 3016 3015 3014 3013 3012 3011 3010 3009 3008 3007 3005 3003 3002 3000 2999 2997 2996 2994 2992 2991 2989 2988 2987 2986 2985 2983 2982 2980 2979 2977 2974 2972 2970 2968 2966 2964 2963 2961 2960 2959 2958 2957 2956 2955 2954 2953 2952 2950 2949 2949 2949 2949 2949 2949 2949 2949 2950 2951 2951
3015 3013 3012 3011 3009 3008 3007 3007 3006 3005 3004 3003 3002 3001 2999 2998 2996 2994 2992 2990 2988 2986 2984 2983 2981 2979 2978 2977 2975 2974 2973 2971 2970 2968 2966 2964 2961 2959 2957 2955 2954 2952 2950 2949 2948 2947 2947 2946 2946 2945 2943 2942 2940 2939 2939 2939 2939 2940 2940 2940 2941 2942
3010 3008 3007 3005 3004 3002 3001 3000 2999 2998 2997 2996 2995 2994 2992 2991 2989 2987 2986 2984 2982 2980 2978 2976 2974 2972 2971 2969 2968 2966 2965 2963 2962 2961 2959 2957 2955 2952 2950 2948 2946 2944 2942 2940 2939 2938 2938 2937 2937 2936 2935 2934 2933 2931 2929 2928 2929 2929 2929 2930 2931 2931
3006 3004 3003 3001 3000 2998 2997 2995 2993 2991 2990 2988 2987 2986 2984 2982 2980 2979 2977 2976 2974 2972 2970 2968 2966 2965 2963 2962 2960 2959 2957 2956 2954 2953 2951 2949 2947 2945 2942 2940 2938 2936 2934 2932 2930 2929 2928 2928 2928 2927 2926 2925 2925 2923 2921 2918 2918 2917 2918 2919 2920 2921
3002 3001 2999 2998 2996 2994 2993 2991 2989 2987 2985 2983 2981 2979 2977 2976 2974 2972 2970 2968 2966 2964 2962 2960 2959 2957 2956 2954 2952 2950 2949 2947 2946 2944 2942 2940 2939 2936 2934 2932 2930 2927 2926 2924 2921 2920 2918 2918 2918 2918 2916 2915 2915 2914 2912 2910 2908 2907 2906 2907 2909 2910
2998 2997 2996 2994 2992 2990 2989 2986 2984 2982 2980 2978 2976 2974 2972 2970 2968 2966 2964 2963 2960 2958 2955 2953 2951 2949 2947 2946 2944 2941 2940 2938 2936 2934 2932 2929 2927 2926 2924 2922 2920 2918 2917 2915 2912 2910 2909 2908 2909 2908 2905 2904 2904 2904 2903 2901 2899 2898 2896 2896 2897 2898
2994 2993 2992 2990 2988 2986 2984 2982 2980 2978 2976 2974 2971 2969 2967 2964 2963 2961 2959 2957 2955 2952 2949 2947 2944 2942 2939 2937 2935 2932 2930 2928 2925 2923 2920 2917 2915 2913 2912 2910 2909 2907 2906 2904 2902 2899 2898 2899 2900 2899 2896 2894 2893 2892 2891 2890 2889 2888 2886 2886 2886 2886
2991 2989 2987 2986 2984 2982 2980 2977 2975 2973 2971 2969 2966 2964 2962 2959 2957 2955 2952 2950 2948 2946 2943 2940 2937 2935 2932 2929 2926 2923 2920 2917 2914 2911 2908 2904 2902 2900 2898 2897 2895 2893 2892 2891 2890 2887 2885 2887 2889 2888 2886 2885 2882 2880 2878 2877 2876 2876 2875 2875 2875 2875
2986 2984 2982 2981 2979 2977 2974 2972 2970 2968 2966 2964 2961 2959 2956 2954 2951 2949 2946 2944 2942 2939 2937 2933 2930 2927 2924 2920 2917 2913 2910 2906 2902 2899 2896 2891 2888 2886 2884 2882 2880 2879 2877 2876 2875 2873 2871 2872 2875 2876 2874 2874 2872 2870 2867 2864 2863 2862 2862 2863 2864 2864
2981 2979 2977 2975 2973 2971 2969 2967 2965 2963 2961 2959 2956 2954 2951 2949 2946 2943 2941 2939 2936 2933 2930 2926 2923 2919 2915 2911 2907 2903 2899 2896 2892 2888 2883 2878 2874 2871 2870 2867 2864 2863 2862 2860 2859 2858 2856 2855 2859 2861 2860 2860 2860 2858 2855 2853 2850 2848 2848 2849 2851 2853
2977 2975 2973 2971 2969 2966 2965 2963 2961 2959 2956 2954 2951 2949 2946 2943 2941 2938 2935 2933 2930 2927 2923 2919 2915 2911 2906 2902 2898 2893 2888 2884 2880 2875 2871 2867 2862 2858 2855 2853 2849 2847 2847 2845 2843 2842 2840 2838 2841 2844 2844 2844 2845 2845 2842 2840 2837 2835 2834 2836 2837 2839
2972 2970 2968 2967 2964 2962 2960 2958 2956 2953 2951 2948 2946 2943 2941 2938 2936 2933 2930 2927 2924 2920 2916 2911 2906 2902 2897 2891 2887 2882 2877 2872 2867 2863 2859 2855 2851 2846 2843 2840 2836 2832 2831 2830 2828 2826 2824 2822 2821 2824 2825 2825 2827 2828 2828 2825 2822 2821 2821 2823 2824 2825
2967 2965 2963 2961 2959 2956 2954 2952 2950 2948 2945 2943 2941 2938 2935 2933 2930 2927 2924 2920 2916 2912 2908 2903 2897 2892 2887 2881 2875 2871 2867 2862 2856 2852 2847 2842 2838 2834 2830 2827 2823 2818 2815 2815 2812 2809 2807 2805 2803 2802 2804 2805 2806 2809 2810 2808 2806 2807 2808 2809 2810 2812
2961 2959 2958 2955 2953 2950 2949 2947 2944 2942 2940 2938 2935 2932 2929 2927 2924 2920 2917 2913 2909 2904 2899 2894 2888 2882 2876 2871 2865 2860 2856 2852 2846 2841 2836 2830 2825 2821 2817 2813 2809 2804 2800 2799 2797 2793 2791 2789 2787 2785 2785 2786 2786 2787 2790 2789 2790 2793 2794 2793 2795 2798
2956 2954 2952 2950 2947 2945 2943 2941 2939 2937 2935 2932 2929 2926 2923 2920 2917 2914 2910 2906 2901 2896 2890 2884 2879 2873 2866 2861 2855 2849 2844 2840 2835 2830 2824 2818 2812 2807 2802 2798 2794 2790 2786 2785 2783 2780 2778 2776 2774 2772 2770 2770 2768 2768 2770 2771 2773 2777 2779 2777 2779 2784
2950 2949 2946 2944 2942 2939 2937 2935 2933 2931 2929 2926 2923 2920 2917 2914 2910 2906 2902 2898 2893 2887 2881 2875 2870 2864 2858 2852 2845 2839 2833 2828 2822 2817 2811 2804 2798 2793 2788 2785 2781 2777 2774 2772 2771 2769 2767 2765 2762 2760 2758 2756 2754 2753 2753 2754 2756 2760 2763 2764 2765 2770
2944 2943 2941 2939 2937 2934 2932 2929 2927 2925 2923 2920 2917 2914 2910 2907 2903 2899 2894 2889 2884 2878 2872 2867 2861 2855 2849 2842 2835 2828 2822 2816 2809 2803 2797 2791 2786 2781 2778 2775 2772 2768 2765 2763 2760 2759 2757 2754 2751 2748 2746 2743 2741 2740 2739 2739 2739 2743 2747 2750 2753 2757
2939 2937 2935 2934 2932 2929 2927 2924 2922 2919 2917 2914 2911 2908 2904 2900 2895 2891 2886 2880 2875 2869 2863 2858 2852 2845 2839 2832 2825 2817 2810 2803 2796 2791 2786 2781 2777 2774 2770 2766 2763 2759 2756 2754 2751 2748 2746 2743 2739 2736 2734 2732 2730 2728 2727 2726 2727 2729 2732 2735 2739 2745
2933 2932 2930 2929 2927 2924 2922 2920 2917 2914 2911 2908 2905 2902 2897 2893 2888 2883 2877 2872 2866 2861 2855 2848 2842 2836 2829 2821 2814 2806 2799 2793 2787 2782 2778 2775 2771 2767 2763 2759 2755 2751 2748 2745 2742 2739 2736 2733 2730 2726 2724 2722 2720 2718 2717 2716 2716 2718 2721 2724 2729 2734
2928 2927 2925 2924 2922 2919 2917 2915 2912 2908 2905 2902 2899 2895 2891 2886 2881 2875 2870 2865 2859 2853 2847 2840 2834 2826 2818 2810 2803 2796 2790 2786 2781 2776 2772 2769 2765 2760 2756 2752 2748 2744 2740 2737 2733 2730 2727 2724 2721 2718 2716 2714 2712 2710 2708 2707 2708 2709 2711 2714 2718 2723
2923 2922 2920 2918 2916 2914 2912 2910 2906 2903 2899 2896 2893 2889 2884 2879 2874 2868 2864 2858 2852 2846 2840 2834 2827 2818 2808 2800 2794 2789 2785 2780 2776 2771 2767 2764 2760 2755 2750 2746 2742 2737 2733 2729 2725 2722 2718 2715 2712 2709 2707 2706 2705 2703 2701 2700 2700 2702 2703 2706 2709 2712
2919 2917 2915 2913 2911 2909 2907 2904 2901 2897 2894 2891 2887 2882 2878 2872 2867 2862 2858 2852 2846 2840 2834 2828 2819 2810 2801 2793 2788 2783 2779 2776 2772 2767 2763 2759 2755 2752 2748 2743 2738 2734 2729 2724 2720 2717 2712 2708 2705 2703 2701 2699 2698 2697 2696 2694 2694 2695 2696 2699 2703 2704
2914 2912 2910 2908 2906 2904 2902 2899 2895 2892 2888 2885 2881 2876 2871 2866 2861 2856 2852 2846 2840 2835 2829 2822 2812 2802 2794 2788 2783 2778 2773 2770 2767 2764 2760 2756 2752 2749 2745 2741 2736 2732 2727 2722 2717 2713 2709 2705 2701 2698 2696 2693 2692 2691 2690 2689 2689 2689 2690 2692 2695 2695
2909 2907 2905 2903 2901 2899 2896 2893 2889 2886 2882 2879 2874 2870 2866 2861 2856 2851 2845 2840 2835 2830 2824 2817 2807 2797 2789 2784 2779 2775 2769 2764 2760 2758 2756 2753 2749 2745 2741 2737 2733 2729 2724 2719 2714 2709 2705 2701 2698 2694 2691 2688 2686 2685 2684 2684 2683 2683 2685 2687 2688 2687
2904 2902 2900 2898 2896 2893 2891 2888 2884 2880 2877 2873 2869 2865 2861 2856 2851 2846 2840 2835 2830 2826 2820 2812 2803 2793 2785 2780 2775 2771 2766 2761 2756 2751 2749 2748 2745 2742 2739 2735 2730 2725 2720 2716 2711 2706 2701 2697 2694 2690 2687 2684 2682 2680 2680 2679 2679 2679 2680 2681 2681 2680
2899 2897 2895 2893 2891 2888 2886 2882 2878 2875 2871 2867 2864 2860 2856 2851 2847 2841 2836 2831 2827 2821 2816 2809 2800 2790 2782 2776 2771 2766 2762 2758 2754 2749 2744 2741 2739 2737 2735 2732 2728 2723 2717 2712 2707 2703 2698 2694 2691 2687 2684 2681 2678 2677 2676 2675 2675 2675 2675 2676 2675 2675
2895 2893 2890 2888 2886 2883 2880 2877 2873 2870 2866 2862 2859 2855 2851 2847 2842 2837 2833 2828 2823 2818 2812 2805 2797 2788 2780 2773 2768 2763 2759 2755 2751 2746 2742 2738 2735 2732 2729 2727 2723 2719 2714 2709 2703 2699 2695 2691 2688 2684 2681 2679 2676 2675 2674 2673 2671 2671 2671 2672 2672 2671
2890 2888 2885 2883 2881 2878 2876 2872 2869 2865 2861 2857 2853 2850 2846 2843 2838 2833 2829 2824 2820 2814 2809 2803 2795 2786 2778 2771 2765 2760 2755 2751 2747 2743 2739 2736 2732 2728 2725 2721 2718 2715 2711 2707 2702 2696 2692 2689 2686 2683 2680 2678 2676 2674 2673 2671 2669 2668 2668 2668 2668 2669
Wind_Speed
30 33 35 34 34 34 34 34 36 37 38 39 41 42 43 45 46 47 48 49 50 51 52 53 53 52 50 48 47 46 45 43 42 41 40 39 39 38 39 39 39 40 41 41 40 38 37 38 38 39 39 39 39 38 38 38 37 38 38 39 41 45
28 30 30 31 32 34 35 37 39 39 40 42 44 45 46 47 48 50 50 52 52 52 53 53 54 53 51 48 46 45 44 43 42 42 41 40 40 39 39 38 37 36 37 38 39 38 38 37 38 39 40 40 40 40 40 40 40 39 39 39 40 41
29 31 32 34 36 38 41 43 45 47 47 48 49 50 51 52 53 53 53 53 51 50 50 50 50 50 49 48 47 45 43 42 41 41 41 42 42 42 42 42 41 39 37 36 36 36 36 36 37 38 39 40 41 41 42 42 42 42 41 41 41 41
35 37 40 42 44 46 49 51 52 54 54 53 53 54 54 54 54 54 54 52 50 47 46 45 45 45 44 45 45 45 44 43 42 42 42 42 43 43 44 44 45 45 44 42 40 38 37 36 36 37 37 38 39 40 42 43 43 44 44 43 43 42
44 47 49 51 52 52 52 52 53 54 54 54 53 52 51 50 50 49 49 48 46 45 44 43 43 42 42 42 43 43 44 44 44 44 44 44 44 44 45 45 45 46 46 46 45 44 43 41 40 38 38 38 39 40 41 42 43 44 44 44 44 44
52 53 53 53 53 52 50 49 50 51 51 50 48 46 44 43 42 41 41 41 41 41 42 42 43 43 43 43 43 44 44 45 45 45 46 46 45 45 45 45 46 46 47 47 47 47 47 46 45 44 42 40 40 41 42 43 43 44 44 44 44 45
52 52 51 50 49 48 47 45 45 45 45 43 42 40 39 38 38 37 37 37 37 37 39 40 42 43 43 43 43 43 44 44 45 45 45 46 46 47 47 47 48 49 49 50 50 51 50 49 49 48 47 46 44 43 43 45 46 47 46 46 45 45
51 50 49 46 45 44 43 41 39 39 38 38 38 37 37 37 36 36 36 36 36 36 37 38 40 41 43 44 44 44 44 44 45 45 46 47 47 48 48 49 50 51 52 53 53 54 54 54 52 51 50 50 49 48 46 46 47 48 50 50 50 48
50 49 46 44 41 39 38 37 36 36 36 36 37 37 37 37 36 36 36 36 37 37 37 38 39 40 41 43 45 46 46 47 47 48 49 49 50 51 51 52 52 53 54 54 55 56 56 57 56 55 53 52 51 51 50 49 48 48 49 51 53 53
48 46 43 40 38 35 34 34 34 34 34 35 36 36 37 38 38 38 38 38 38 39 39 40 40 41 42 43 44 46 47 48 49 51 52 53 54 56 56 57 58 58 57 57 56 56 56 57 57 58 57 56 54 54 53 53 52 51 50 50 51 53
48 45 42 39 37 35 34 34 34 34 34 34 35 35 36 37 38 39 39 40 40 41 41 42 42 43 44 45 46 47 49 51 52 54 55 57 58 59 60 60 61 61 61 60 58 57 56 56 56 57 58 58 58 57 56 56 55 54 53 52 51 51
48 46 44 41 39 37 37 36 36 36 35 36 36 36 37 38 38 39 40 40 41 41 42 42 42 43 44 45 46 47 49 50 52 54 56 58 59 60 61 61 61 61 61 61 60 59 58 57 56 56 56 57 58 59 59 59 58 57 57 56 55 54
45 43 41 40 39 39 40 40 40 40 40 40 41 41 42 42 42 43 42 42 42 42 43 43 44 44 44 45 45 46 47 48 49 51 52 54 56 57 58 60 60 61 61 61 61 61 60 59 58 58 57 57 57 58 60 61 61 60 59 59 58 57
41 39 38 38 39 39 40 41 42 43 44 45 45 46 46 46 47 47 47 47 46 46 46 46 46 47 47 47 48 48 49 49 50 50 51 53 54 56 57 59 60 61 61 62 62 62 62 62 61 61 60 59 58 57 58 61 62 63 62 61 60 60
37 37 36 37 38 39 40 42 44 46 47 47 47 47 47 47 47 48 49 49 49 49 49 49 50 51 51 52 52 53 53 54 54 55 55 56 57 58 59 60 62 63 63 63 64 64 64 64 64 63 63 63 61 59 58 59 61 64 65 64 63 62
35 35 36 37 39 41 43 44 46 47 47 47 47 47 47 47 48 48 49 49 50 51 52 53 54 55 56 57 57 58 59 59 60 61 62 63 63 63 64 64 65 66 66 66 67 67 67 67 66 66 66 66 65 63 61 59 60 62 65 66 66 65
33 35 36 38 40 42 44 45 47 47 47 47 46 47 47 48 49 49 49 50 51 52 54 55 57 58 59 61 62 63 64 65 66 67 68 70 70 70 70 70 70 70 70 71 71 71 72 70 69 68 68 68 68 67 65 63 62 62 63 65 66 67
35 36 38 40 42 43 44 46 48 48 48 48 48 48 49 50 50 50 51 52 53 54 55 57 59 61 62 64 66 68 69 71 72 73 75 76 77 77 77 77 77 76 76 75 75 75 75 74 72 70 69 69 69 70 70 69 67 65 65 65 66 66
39 40 41 43 44 45 46 48 49 49 49 49 50 50 50 51 51 52 53 54 54 56 57 60 62 64 66 68 70 72 74 76 78 79 80 82 82 82 82 81 81 80 80 79 78 77 76 75 73 72 71 70 70 70 71 72 72 71 69 67 66 66
42 43 45 46 46 47 49 49 49 49 49 50 50 50 51 51 52 53 54 55 56 58 60 62 65 67 70 72 74 77 79 81 82 83 84 84 84 84 84 83 83 82 81 80 79 78 77 76 74 71 71 71 70 71 72 73 74 75 75 73 70 68
46 46 46 46 47 48 48 48 48 49 49 50 50 50 50 51 52 53 54 56 58 60 63 66 68 71 74 77 79 81 83 83 84 84 84 84 84 84 83 83 83 82 82 81 81 80 80 79 77 74 72 71 70 70 72 74 75 76 77 76 74 72
47 46 46 46 46 46 47 47 48 48 49 49 49 50 50 51 52 53 55 58 61 63 66 69 72 75 78 80 82 83 83 83 83 82 82 82 82 82 83 83 84 85 85 84 84 84 83 82 81 79 76 75 73 72 72 73 76 78 78 78 77 75
45 45 45 45 45 46 47 47 48 48 48 48 48 49 50 51 53 55 57 61 63 66 70 73 76 79 80 81 82 81 81 80 80 80 81 81 82 83 83 84 85 87 87 86 86 85 83 81 80 79 77 76 75 74 73 74 76 77 78 79 78 77
44 44 45 45 46 47 47 47 47 47 46 46 47 49 50 52 55 57 60 63 66 70 73 76 78 79 79 79 79 79 78 78 79 79 80 81 82 84 85 86 88 89 88 85 82 80 76 73 72 71 70 70 71 72 73 74 75 75 76 78 79 78
45 45 45 46 46 47 47 46 45 44 45 46 47 49 52 54 57 60 63 66 70 73 76 77 77 76 76 76 76 77 77 78 78 79 81 83 85 86 87 87 85 83 79 74 69 67 66 64 64 65 64 64 65 66 68 71 73 74 75 76 78 78
46 46 46 46 46 45 44 43 43 43 44 46 48 51 54 57 60 63 66 69 73 74 74 73 72 72 73 74 75 76 78 79 81 82 83 83 83 81 79 75 71 68 65 62 60 60 60 61 61 61 61 61 61 61 62 65 68 71 73 74 75 76
47 46 46 45 43 41 41 41 42 43 45 47 50 53 56 59 62 65 69 72 72 71 70 69 70 71 73 74 76 78 81 82 82 80 77 73 70 67 64 61 59 59 58 58 59 58 58 59 59 59 59 59 58 57 58 60 63 66 69 71 72 73
46 45 43 41 39 39 40 41 42 44 46 49 52 55 58 61 65 68 70 70 68 67 67 68 70 72 75 77 80 82 81 77 72 67 63 59 57 56 55 55 56 57 57 57 58 57 56 56 56 56 56 55 54 53 52 54 57 61 64 68 70 71
43 41 39 37 37 38 39 40 43 45 48 51 53 57 60 63 67 69 67 65 64 64 66 69 72 75 78 80 80 75 69 63 58 55 53 51 51 51 52 53 54 55 56 55 54 53 52 51 51 52 52 51 50 49 48 47 49 52 56 60 63 65
41 38 37 36 37 38 39 41 43 47 50 52 55 59 62 65 66 65 62 61 62 64 67 71 74 77 79 77 70 61 55 52 49 48 47 47 47 49 50 51 52 52 52 52 51 50 49 48 47 48 46 45 45 45 44 42 42 44 48 52 55 55
39 38 37 37 37 39 40 42 44 48 51 54 57 60 63 64 63 60 58 59 61 64 68 72 74 77 75 67 57 50 47 46 45 46 46 45 44 46 47 48 49 49 49 50 50 49 49 47 47 47 46 43 41 40 39 39 37 37 40 45 49 49
38 37 36 37 38 39 40 43 46 49 53 55 58 61 62 61 58 56 56 57 60 64 68 71 73 73 67 56 48 46 44 43 43 43 44 43 41 41 42 42 43 44 45 47 48 48 49 49 48 48 47 44 41 39 37 37 36 35 35 37 39 43
36 35 35 36 38 39 41 44 47 51 54 56 58 60 59 56 54 54 55 56 59 63 66 69 71 69 59 49 45 44 44 44 43 40 39 38 38 37 36 37 38 40 41 44 46 47 47 48 47 46 45 43 41 38 36 35 35 35 36 35 34 38
34 34 35 36 38 40 42 46 49 52 54 56 58 57 54 52 51 52 53 55 59 62 64 66 68 65 55 46 43 43 43 45 44 40 37 35 34 33 33 34 35 37 38 40 42 44 45 46 46 45 43 40 38 36 34 32 32 32 33 34 34 39
33 33 35 37 38 41 44 47 50 53 54 56 56 54 50 48 49 51 52 54 58 60 61 64 65 62 53 45 42 42 42 43 43 42 39 35 33 31 30 30 32 35 37 38 39 41 42 42 42 41 39 36 34 32 30 29 29 28 29 31 35 42
32 33 35 37 39 42 45 48 50 53 54 54 53 50 47 46 48 49 50 53 56 58 59 61 62 60 53 45 42 41 41 40 40 40 40 38 36 32 29 27 29 32 35 37 38 39 39 38 37 36 34 31 29 26 25 25 25 25 25 28 34 40
32 34 36 38 40 43 46 48 51 52 53 53 51 47 44 45 46 47 48 51 54 55 56 57 59 58 53 46 41 40 39 39 38 38 38 38 37 36 33 31 31 32 34 36 38 39 38 37 35 33 29 26 22 19 19 20 22 21 21 22 27 33
33 35 37 39 41 44 46 48 51 52 52 52 49 44 42 43 44 45 47 50 52 52 53 54 55 56 53 47 42 39 38 38 38 38 38 37 37 36 35 33 33 33 34 35 36 38 37 36 33 30 26 22 18 15 14 16 19 20 20 19 20 24
Wind_Direction
272 274 274 274 275 276 278 279 280 281 283 285 287 288 290 291 292 293 295 296 296 297 299 300 301 301 302 302 301 301 299 298 296 294 293 292 291 290 289 289 289 290 290 291 292 292 291 289 288 287 287 287 286 284 283 282 282 280 278 275 273 272
269 271 275 279 282 284 287 288 290 291 291 291 291 292 293 294 294 295 296 296 296 296 296 296 296 297 298 299 298 297 295 294 294 293 293 293 293 292 291 290 289 288 287 287 288 289 289 288 287 286 285 285 284 283 281 279 279 279 278 276 274 272
272 276 279 283 286 289 292 294 296 297 296 295 294 294 294 294 294 295 295 296 295 295 294 292 292 293 294 294 294 293 293 292 291 291 292 293 294 295 295 294 294 292 289 286 284 284 285 285 285 284 283 282 281 280 279 278 277 277 276 276 275 273
281 283 286 288 291 293 295 297 298 298 298 298 296 295 294 293 293 292 293 293 292 292 291 290 289 289 288 288 288 289 290 290 291 290 290 291 291 292 293 293 294 295 295 293 291 288 286 284 283 282 281 280 278 276 275 274 274 274 274 274 274 274
291 292 294 296 298 299 299 299 299 298 297 296 295 294 293 292 291 291 291 291 290 290 290 288 287 286 285 285 285 285 286 288 289 290 290 289 288 288 288 289 290 291 293 294 294 294 292 290 287 284 281 279 277 274 272 271 271 271 271 272 273 273
298 298 299 300 301 302 301 300 298 297 295 294 293 292 292 292 292 292 292 291 291 290 290 289 288 287 286 286 286 287 287 288 288 288 289 289 289 289 288 287 287 288 289 290 291 292 293 292 291 289 286 282 279 276 273 271 270 270 270 270 271 272
303 303 303 303 302 301 300 299 297 296 295 294 294 294 294 295 296 295 294 293 291 289 288 288 288 288 289 289 289 290 290 290 290 289 289 288 289 289 289 289 288 288 288 288 289 289 290 291 290 290 289 287 283 280 276 273 271 270 270 269 269 270
305 305 305 304 302 301 299 298 297 296 295 295 295 295 295 296 296 295 294 293 291 289 288 287 287 287 288 289 291 291 291 290 289 289 288 287 286 286 287 287 288 288 288 288 288 288 288 289 289 288 288 287 286 284 281 277 274 272 270 269 269 268
305 304 304 302 300 298 297 296 296 295 295 295 296 297 297 297 297 296 296 296 295 294 292 291 289 288 288 288 290 291 292 292 292 291 290 289 288 287 287 287 287 288 288 288 288 287 286 286 287 287 286 285 284 284 283 281 278 275 272 271 269 269
302 301 300 298 296 295 295 295 295 295 295 296 297 298 298 299 300 300 300 301 300 299 298 297 296 294 293 291 291 291 291 292 293 293 293 293 292 291 290 289 288 288 288 288 288 287 286 285 284 284 284 284 282 282 281 281 280 278 275 273 271 270
296 296 295 294 294 293 293 293 293 294 295 296 297 298 299 300 301 301 302 303 303 303 302 301 300 299 298 297 295 294 293 292 291 291 291 292 291 291 291 290 289 288 287 287 286 284 284 283 282 282 282 282 281 280 279 278 278 278 277 275 273 271
293 294 294 294 294 295 295 295 295 296 298 299 300 300 300 301 301 302 303 303 303 303 302 301 301 300 300 299 299 297 295 294 292 291 290 290 289 289 288 288 287 287 287 286 285 283 282 281 280 281 281 281 280 279 278 277 276 275 275 274 274 272
291 292 293 294 296 298 299 300 302 303 304 304 305 304 304 304 304 304 304 303 303 302 301 301 301 300 300 299 299 298 297 296 295 294 293 291 290 289 288 288 287 287 287 286 285 284 282 281 280 279 280 280 280 280 279 278 276 274 273 272 272 272
289 290 292 295 297 299 302 305 308 309 309 309 309 308 308 307 307 307 306 305 305 304 303 302 301 301 301 300 300 299 298 297 297 296 295 295 294 292 291 290 289 288 288 287 286 284 283 282 280 279 279 279 279 280 280 278 277 275 273 272 271 270
287 289 292 296 298 301 305 309 311 311 310 310 309 309 308 308 308 307 307 306 306 305 304 303 303 302 302 302 301 300 299 298 297 297 296 295 294 293 292 291 290 290 289 288 287 286 284 283 281 280 280 279 279 279 279 278 276 276 274 273 271 270
288 291 295 298 301 305 308 310 310 309 309 308 307 307 307 307 307 306 306 305 305 305 305 305 304 304 303 303 302 301 300 299 298 297 296 295 293 292 291 290 289 288 288 288 287 286 285 284 283 282 281 280 279 278 278 276 275 274 273 273 272 271
292 296 299 302 306 308 309 309 308 308 307 306 306 305 305 305 305 305 304 304 304 304 304 304 304 303 303 303 302 301 301 300 299 298 297 296 295 293 292 290 289 288 287 287 287 286 285 284 283 282 281 280 279 278 277 275 273 271 271 271 271 270
294 299 302 305 307 308 307 307 308 307 306 305 304 304 304 304 304 304 304 304 304 304 304 303 303 302 302 302 302 301 301 300 300 299 298 298 297 295 294 293 292 290 289 288 287 285 284 283 282 281 279 278 277 277 276 275 273 271 268 267 268 268
297 301 303 306 307 307 307 307 306 304 303 302 302 302 302 302 302 303 303 304 304 304 303 303 303 303 303 302 302 301 301 301 300 300 300 299 298 296 295 294 293 291 290 289 287 285 284 282 280 278 276 274 273 272 272 272 272 271 269 266 264 265
300 303 305 306 306 305 305 304 302 300 299 299 299 299 299 300 301 302 303 303 303 303 303 303 303 303 302 302 302 301 301 301 300 300 299 298 298 296 295 294 293 292 290 289 288 286 284 282 280 277 275 272 270 269 268 267 267 268 268 267 264 262
300 302 303 304 303 302 300 298 296 296 296 297 297 297 298 300 301 301 301 301 302 302 303 303 303 303 302 302 302 302 301 301 300 299 298 298 297 296 295 295 294 293 291 290 289 288 286 284 282 278 275 272 269 267 266 265 263 263 263 265 264 262
299 300 300 299 297 296 294 293 293 294 295 295 296 297 299 300 300 301 301 301 302 303 303 303 303 303 303 303 302 302 301 300 299 299 298 298 297 297 296 295 295 294 293 292 291 290 288 286 284 280 277 273 268 265 263 263 261 260 259 260 261 261
299 298 297 296 294 293 292 292 293 294 294 296 297 298 299 300 300 301 302 303 303 304 304 304 304 304 303 303 302 301 300 300 300 300 299 298 297 297 296 295 295 294 293 292 292 291 289 287 285 282 278 274 270 265 261 259 259 259 258 257 257 257
298 297 296 294 293 292 293 293 294 295 296 298 298 299 300 301 302 303 304 304 304 305 305 305 304 304 304 303 302 302 302 301 301 300 299 299 298 297 296 296 295 294 293 293 292 291 289 288 286 284 281 277 272 267 261 257 255 256 257 257 256 255
297 296 295 294 294 294 295 296 296 297 298 299 300 301 302 303 304 304 305 305 306 306 306 305 305 305 305 304 304 304 303 303 302 302 301 300 299 297 296 295 294 294 293 293 292 291 290 289 288 286 284 281 277 271 264 258 254 251 252 254 255 255
296 295 295 295 296 297 297 298 298 299 300 302 303 304 304 305 305 306 307 307 307 307 307 307 307 306 306 307 307 306 306 305 304 303 301 300 298 297 296 296 296 295 295 294 293 292 291 290 289 288 286 284 280 276 269 262 255 250 248 249 252 253
296 296 296 297 298 298 298 299 299 301 303 304 304 305 305 306 307 308 309 309 309 309 309 309 309 310 311 311 310 309 307 306 304 303 302 300 300 299 299 298 298 297 296 296 296 295 293 291 289 287 286 284 282 278 273 265 258 251 247 246 247 250
297 297 297 297 298 298 298 300 302 304 305 305 305 306 307 309 310 311 311 311 311 311 312 313 314 315 314 313 311 309 308 307 306 305 304 303 302 301 301 300 300 300 300 300 299 297 295 293 291 289 287 286 285 282 277 269 262 255 248 244 244 245
297 298 298 297 297 298 299 301 304 306 306 306 307 308 310 312 312 312 312 313 313 314 316 318 319 317 315 313 311 311 310 309 308 307 306 305 305 304 304 304 304 304 303 302 301 299 298 295 293 291 290 288 287 286 281 273 265 258 252 246 244 244
297 298 298 298 298 299 300 303 306 306 306 307 309 311 313 314 314 314 314 315 316 319 322 321 319 317 315 315 314 313 312 311 310 309 308 308 308 307 307 307 306 306 305 305 304 303 301 299 296 294 293 291 289 287 285 278 269 260 253 246 242 242
297 298 298 298 298 300 302 305 307 307 308 309 312 314 314 315 315 315 315 318 321 324 323 321 319 319 319 318 316 315 314 314 313 311 310 310 311 311 311 310 310 310 310 309 308 308 307 305 303 303 301 298 295 292 289 282 273 263 255 247 240 237
296 297 297 297 299 302 305 307 308 309 310 312 314 315 316 316 316 315 318 322 325 325 323 322 323 323 321 319 318 317 316 315 315 315 313 313 313 313 314 315 315 314 313 311 310 310 309 308 308 308 306 304 300 297 292 285 276 266 255 247 240 236
295 295 295 297 301 304 307 309 310 311 313 315 316 317 318 317 316 317 321 325 326 325 324 325 326 326 324 321 319 319 317 318 319 319 318 315 314 314 316 318 318 317 315 312 311 309 308 308 308 308 306 304 301 297 294 288 280 270 257 247 240 236
293 293 296 300 303 306 309 311 312 313 315 317 318 318 318 317 316 319 324 327 326 325 326 328 330 329 326 321 320 320 321 321 321 320 319 318 317 318 321 323 321 319 317 314 312 311 309 308 308 308 308 307 303 300 297 292 285 276 264 253 244 238
292 295 300 303 306 309 311 312 314 316 317 318 319 318 317 317 318 322 326 327 325 326 328 330 333 333 329 322 321 322 324 325 325 322 320 320 319 322 326 328 325 322 320 318 316 314 312 310 309 310 310 309 305 303 302 299 293 285 273 260 249 242
294 299 303 305 308 311 313 314 316 318 318 318 318 318 317 318 320 323 327 326 325 327 330 332 335 336 333 326 323 323 325 327 328 326 324 322 320 322 327 331 330 328 326 324 322 320 318 316 314 312 311 310 307 307 308 307 301 293 283 269 257 249
298 302 305 307 310 312 314 316 318 318 318 318 318 317 317 318 321 325 327 326 326 329 331 333 337 339 337 331 326 324 325 328 330 330 330 328 326 325 328 332 334 334 332 331 329 327 325 323 320 317 315 313 312 313 312 307 302 299 294 282 269 260
301 304 306 308 311 313 315 318 319 318 318 318 317 317 317 319 322 326 327 326 328 331 333 335 338 340 340 336 331 327 327 330 332 333 334 333 333 332 332 334 335 336 337 338 336 333 331 329 325 321 319 316 314 312 306 298 297 299 297 291 283 274